Terminal Aerodrome Forecast
Issued by NWS Wilmington, NC

Home | Current Version | Previous Version | Text Only | Print | Product List | Glossary On
Versions: 1 2 3 4 5 6 7 8 9 10 11 12
000
FTUS42 KILM 252300
TAFMYR
TAF
KMYR 252320Z 2600/2624 27004KT P6SM SKC
     FM261400 32009KT P6SM SKC
      AMD LTD TO CLD VIS AND WIND 2604/2611=

USA.gov is the U.S. government's official web portal to all federal, state and local government web resources and services.